Houston, TX

1:07 PM CST on November 20, 2019 (GMT -0600)
Houston

Weather History for KTME - September, 2019

Change the Weather History Date:

Sunday, September 1, 2019

  Actual Average (KSGR) Record (KSGR)
Temperature  
Mean Temperature 84 °F -  
Max Temperature 96 °F 92 °F 104 °F (2000)
Min Temperature 73 °F 72 °F 66 °F (2004)
Cooling Degree Days 20    
Growing Degree Days 34 (Base 50)    
Moisture  
Dew Point 69 °F    
Average Humidity 66    
Maximum Humidity 100    
Minimum Humidity 28    
Precipitation  
Precipitation 0.00 in - - ()
Sea Level Pressure  
Sea Level Pressure 30.01 in    
Wind  
Wind Speed 4 mph (NE)    
Max Wind Speed 15 mph    
Max Gust Speed 17 mph    
Visibility 10 miles    
Events      
Averages and records for this station are not official NWS values.
T = Trace of Precipitation, MM = Missing Value Source: NWS Daily Summary

Daily Weather History Graph

Daily Weather History Graph

Search for Another Location

Airport or City:

Astronomy

Sep. 01, 2019 Rise Set
Actual Time 7:00 AM CDT 7:46 PM CDT
Civil Twilight 6:36 AM CDT 8:10 PM CDT
Nautical Twilight 6:07 AM CDT 8:38 PM CDT
Astronomical Twilight 5:38 AM CDT 9:08 PM CDT
Moon 9:23 AM CDT (9/1) 9:45 PM CDT (9/1)
Length of Visible Light 13h 34m
Length of Day
12h 45m
Waxing Crescent, 8% of the Moon is Illuminated
Sep 1
Waxing Crescent
Sep 5
First Quarter
Sep 13
Full
Sep 21
Last Quarter
Sep 28
New

Hourly Weather History & Observations

Time (CDT) Temp. Heat Index Dew Point Humidity Pressure Visibility Wind Dir Wind Speed Gust Speed Precip Events Conditions
12:15 AM 75.2 °F - 73.4 °F 94% 30.01 in 10.0 mi NNE 3.5 mph - N/A   Clear
12:35 AM 75.2 °F - 73.4 °F 94% 30.02 in 10.0 mi Calm Calm - N/A   Clear
12:55 AM 75.2 °F - 73.4 °F 94% 30.01 in 10.0 mi North 4.6 mph - N/A   Clear
1:15 AM 75.2 °F - 73.4 °F 94% 30.02 in 10.0 mi North 3.5 mph - N/A   Clear
1:35 AM 75.2 °F - 73.4 °F 94% 30.01 in 10.0 mi Calm Calm - N/A   Clear
1:55 AM 75.2 °F - 73.4 °F 94% 30.02 in 10.0 mi Calm Calm - N/A   Clear
2:15 AM 75.2 °F - 73.4 °F 94% 30.01 in 10.0 mi NNW 3.5 mph - N/A   Clear
2:35 AM 75.2 °F - 73.4 °F 94% 30.01 in 10.0 mi Calm Calm - N/A   Clear
2:55 AM 75.2 °F - 73.4 °F 94% 30.01 in 9.0 mi Calm Calm - N/A   Clear
3:15 AM 75.2 °F - 73.4 °F 94% 30.01 in 9.0 mi Calm Calm - N/A   Clear
3:35 AM 75.2 °F - 73.4 °F 94% 30.01 in 9.0 mi Calm Calm - N/A   Clear
3:55 AM 75.2 °F - 75.2 °F 100% 30.01 in 9.0 mi NW 3.5 mph - N/A   Clear
4:15 AM 75.2 °F - 73.4 °F 94% 30.01 in 10.0 mi Calm Calm - N/A   Clear
4:35 AM 75.2 °F - 73.4 °F 94% 30.01 in 10.0 mi Calm Calm - N/A   Partly Cloudy
4:55 AM 73.4 °F - 73.4 °F 100% 30.01 in 9.0 mi North 3.5 mph - N/A   Partly Cloudy
5:15 AM 75.2 °F - 73.4 °F 94% 30.01 in 9.0 mi NNE 3.5 mph - N/A   Partly Cloudy
5:35 AM 75.2 °F - 73.4 °F 94% 30.02 in 7.0 mi Calm Calm - N/A   Clear
5:55 AM 73.4 °F - 73.4 °F 100% 30.02 in 5.0 mi Calm Calm - N/A   Clear
6:15 AM 73.4 °F - 73.4 °F 100% 30.02 in 6.0 mi NNE 3.5 mph - N/A   Partly Cloudy
6:35 AM 73.4 °F - 73.4 °F 100% 30.03 in 6.0 mi NE 4.6 mph - N/A   Scattered Clouds
6:55 AM 73.4 °F - 73.4 °F 100% 30.03 in 9.0 mi Calm Calm - N/A   Overcast
7:15 AM 75.2 °F - 73.4 °F 94% 30.04 in 9.0 mi Calm Calm - N/A   Mostly Cloudy
7:35 AM 75.2 °F - 73.4 °F 94% 30.05 in 6.0 mi NNE 4.6 mph - N/A   Clear
7:55 AM 75.2 °F - 75.2 °F 100% 30.05 in 7.0 mi Calm Calm - N/A   Scattered Clouds
8:15 AM 78.8 °F - 75.2 °F 89% 30.06 in 9.0 mi NE 4.6 mph - N/A   Partly Cloudy
8:35 AM 80.6 °F 86.2 °F 75.2 °F 84% 30.06 in 9.0 mi NNE 4.6 mph - N/A   Clear
8:55 AM 82.4 °F 89.5 °F 75.2 °F 79% 30.06 in 10.0 mi NNE 5.8 mph - N/A   Clear
9:15 AM 84.2 °F 92.3 °F 75.2 °F 74% 30.07 in 10.0 mi North 6.9 mph - N/A   Clear
9:35 AM 84.2 °F 94.1 °F 77.0 °F 79% 30.07 in 10.0 mi North 6.9 mph - N/A   Mostly Cloudy
9:55 AM 86.0 °F 95.1 °F 75.2 °F 70% 30.07 in 10.0 mi NNE 9.2 mph - N/A   Mostly Cloudy
10:15 AM 86.0 °F 95.1 °F 75.2 °F 70% 30.07 in 10.0 mi NNE 6.9 mph - N/A   Mostly Cloudy
10:35 AM 87.8 °F 97.6 °F 75.2 °F 66% 30.07 in 10.0 mi North 5.8 mph - N/A   Mostly Cloudy
10:55 AM 87.8 °F 95.6 °F 73.4 °F 62% 30.07 in 10.0 mi NE 8.1 mph 15.0 mph N/A   Scattered Clouds
11:15 AM 89.6 °F 99.8 °F 75.2 °F 62% 30.07 in 10.0 mi NE 6.9 mph - N/A   Clear
11:35 AM 89.6 °F 99.8 °F 75.2 °F 62% 30.06 in 10.0 mi North 4.6 mph - N/A   Scattered Clouds
11:55 AM 89.6 °F 98.2 °F 73.4 °F 59% 30.06 in 10.0 mi Variable 6.9 mph - N/A   Mostly Cloudy
12:15 PM 91.4 °F 98.4 °F 71.6 °F 52% 30.05 in 10.0 mi NE 4.6 mph 15.0 mph N/A   Scattered Clouds
12:35 PM 91.4 °F 96.8 °F 69.8 °F 49% 30.04 in 10.0 mi Calm Calm 12.7 mph N/A   Partly Cloudy
12:55 PM 95.0 °F 101.3 °F 69.8 °F 44% 30.03 in 10.0 mi ENE 6.9 mph 13.8 mph N/A   Clear
1:15 PM 93.2 °F 98.8 °F 69.8 °F 46% 30.02 in 10.0 mi NNE 10.4 mph - N/A   Clear
1:35 PM 93.2 °F 97.7 °F 68.0 °F 44% 30.02 in 10.0 mi North 5.8 mph 12.7 mph N/A   Partly Cloudy
1:55 PM 95.0 °F 99.5 °F 68.0 °F 41% 30.01 in 10.0 mi NE 10.4 mph - N/A   Partly Cloudy
2:15 PM 96.8 °F 101.8 °F 68.0 °F 39% 30.00 in 10.0 mi Calm Calm 17.3 mph N/A   Clear
2:35 PM 95.0 °F 98.5 °F 66.2 °F 39% 29.99 in 10.0 mi Calm Calm 15.0 mph N/A   Scattered Clouds
2:55 PM 96.8 °F 100.7 °F 66.2 °F 37% 29.99 in 10.0 mi Variable 5.8 mph 15.0 mph N/A   Partly Cloudy
3:15 PM 96.8 °F 100.7 °F 66.2 °F 37% 29.97 in 10.0 mi ENE 15.0 mph - N/A   Clear
3:35 PM 96.8 °F 100.7 °F 66.2 °F 37% 29.96 in 10.0 mi NE 15.0 mph - N/A   Clear
3:55 PM 96.8 °F 99.0 °F 64.4 °F 34% 29.96 in 10.0 mi NE 9.2 mph 17.3 mph N/A   Clear
4:15 PM 96.8 °F 99.0 °F 64.4 °F 34% 29.95 in 10.0 mi NE 11.5 mph - N/A   Clear
4:35 PM 96.8 °F 99.0 °F 64.4 °F 34% 29.95 in 10.0 mi East 10.4 mph 17.3 mph N/A   Partly Cloudy
4:55 PM 96.8 °F 99.0 °F 64.4 °F 34% 29.94 in 10.0 mi East 9.2 mph - N/A   Partly Cloudy
5:15 PM 96.8 °F 97.1 °F 60.8 °F 30% 29.94 in 10.0 mi East 12.7 mph - N/A   Partly Cloudy
5:35 PM 96.8 °F 96.2 °F 59.0 °F 28% 29.94 in 10.0 mi ENE 8.1 mph 17.3 mph N/A   Clear
5:55 PM 96.8 °F 96.2 °F 59.0 °F 28% 29.94 in 10.0 mi NE 9.2 mph 16.1 mph N/A   Clear
6:15 PM 96.8 °F 96.2 °F 59.0 °F 28% 29.93 in 10.0 mi East 11.5 mph - N/A   Clear
6:35 PM 95.0 °F 95.2 °F 60.8 °F 32% 29.94 in 10.0 mi ENE 8.1 mph - N/A   Clear
6:55 PM 93.2 °F 93.3 °F 60.8 °F 34% 29.94 in 10.0 mi East 5.8 mph - N/A   Clear
7:15 PM 93.2 °F 93.3 °F 60.8 °F 34% 29.95 in 10.0 mi East 6.9 mph - N/A   Clear
7:35 PM 91.4 °F 91.4 °F 60.8 °F 36% 29.95 in 10.0 mi East 8.1 mph - N/A   Clear
7:55 PM 89.6 °F 90.1 °F 62.6 °F 40% 29.95 in 10.0 mi East 5.8 mph - N/A   Clear
8:15 PM 87.8 °F 88.5 °F 62.6 °F 43% 29.96 in 10.0 mi ESE 4.6 mph - N/A   Clear
8:35 PM 87.8 °F 89.4 °F 64.4 °F 46% 29.96 in 10.0 mi Calm Calm - N/A   Clear
8:55 PM 86.0 °F 87.3 °F 64.4 °F 48% 29.97 in 10.0 mi Calm Calm - N/A   Clear
9:15 PM 84.2 °F 85.6 °F 64.4 °F 51% 29.98 in 10.0 mi Calm Calm - N/A   Clear
9:35 PM 82.4 °F 84.6 °F 66.2 °F 58% 29.98 in 10.0 mi Calm Calm - N/A   Clear
9:55 PM 80.6 °F 82.7 °F 66.2 °F 61% 29.99 in 10.0 mi Calm Calm - N/A   Clear
10:15 PM 82.4 °F 84.6 °F 66.2 °F 58% 30.00 in 10.0 mi Calm Calm - N/A   Clear
10:35 PM 80.6 °F 82.7 °F 66.2 °F 61% 30.01 in 10.0 mi Calm Calm - N/A   Clear
10:55 PM 80.6 °F 82.7 °F 66.2 °F 61% 30.01 in 10.0 mi Calm Calm - N/A   Clear
11:15 PM 78.8 °F - 64.4 °F 61% 30.01 in 10.0 mi Calm Calm - N/A   Clear
11:35 PM 80.6 °F 82.7 °F 66.2 °F 61% 30.01 in 10.0 mi Calm Calm - N/A   Clear
11:55 PM 77.0 °F - 66.2 °F 69% 30.00 in 10.0 mi Calm Calm - N/A   Clear